QPF
0.00 0.00 0.00 0.00 0.00 0.00 0.00 0.00 0.00 0.00 0.00 0.00 0.00 0.00 0.00 0.00 0.00 0.00 0.00 0.00 0.00 0.00 0.00 0.00 0.00 0.00 0.00 0.00 0.00 0.00 0.00 0.00 0.00 0.00 0.00 0.00 0.00 0.00 0.00 0.00 0.00 0.00 0.00
0.00 0.00 0.00 0.00 0.00 0.00 0.00 0.00 0.00 0.00 0.00 0.00 0.00 0.00 0.00 0.00 0.00 0.00 0.00 0.00 0.00 0.00 0.00 0.00 0.00 0.00 0.00 0.00 0.00 0.00 0.00 0.00 0.00 0.00 0.00 0.00 0.00 0.00 0.00 0.00 0.00 0.00 0.00
0.00 0.00 0.00 0.00 0.00 0.00 0.00 0.00 0.00 0.00 0.00 0.00 0.00 0.00 0.00 0.00 0.00 0.00 0.00 0.00 0.00 0.00 0.00 0.00 0.00 0.00 0.00 0.00 0.00 0.00 0.00 0.00 0.00 0.00 0.00 0.00 0.00 0.00 0.00 0.00 0.00 0.00 0.00
0.00 0.00 0.00 0.00 0.00 0.00 0.00 0.01 0.01 0.00 0.00 0.00 0.00 0.00 0.00 0.00 0.00 0.00 0.00 0.00 0.00 0.00 0.00 0.00 0.00 0.00 0.00 0.00 0.00 0.00 0.00 0.00 0.00 0.00 0.00 0.00 0.00 0.00 0.00 0.00 0.00 0.00 0.00
0.00 0.00 0.00 0.00 0.00 0.00 0.01 0.02 0.01 0.00 0.00 0.00 0.00 0.00 0.00 0.00 0.00 0.00 0.00 0.00 0.00 0.00 0.00 0.00 0.00 0.00 0.00 0.00 0.00 0.00 0.00 0.00 0.00 0.00 0.00 0.00 0.00 0.00 0.00 0.00 0.00 0.00 0.00
0.00 0.00 0.00 0.00 0.00 0.00 0.03 0.03 0.01 0.01 0.00 0.00 0.00 0.00 0.00 0.00 0.00 0.00 0.00 0.00 0.00 0.00 0.00 0.00 0.00 0.00 0.00 0.00 0.00 0.00 0.00 0.00 0.00 0.00 0.00 0.00 0.00 0.00 0.00 0.00 0.00 0.00 0.00
0.00 0.00 0.00 0.00 0.00 0.00 0.00 0.01 0.01 0.00 0.00 0.00 0.00 0.00 0.00 0.00 0.00 0.00 0.00 0.00 0.00 0.00 0.00 0.00 0.00 0.00 0.00 0.00 0.00 0.00 0.00 0.00 0.00 0.00 0.00 0.00 0.00 0.00 0.00 0.00 0.00 0.00 0.00
0.00 0.00 0.00 0.00 0.00 0.00 0.00 0.00 0.00 0.00 0.00 0.00 0.00 0.00 0.00 0.00 0.00 0.00 0.00 0.00 0.00 0.00 0.00 0.00 0.00 0.00 0.00 0.00 0.00 0.00 0.00 0.00 0.00 0.00 0.00 0.00 0.00 0.00 0.00 0.00 0.00 0.00 0.00
0.00 0.00 0.00 0.00 0.00 0.00 0.00 0.00 0.00 0.00 0.00 0.00 0.00 0.00 0.00 0.00 0.00 0.00 0.00 0.00 0.00 0.00 0.00 0.00 0.00 0.00 0.00 0.00 0.00 0.00 0.00 0.00 0.00 0.00 0.00 0.00 0.00 0.00 0.00 0.00 0.00 0.00 0.00
0.00 0.00 0.00 0.00 0.00 0.00 0.00 0.00 0.00 0.00 0.00 0.00 0.00 0.00 0.00 0.00 0.00 0.00 0.00 0.00 0.00 0.00 0.00 0.00 0.00 0.00 0.00 0.00 0.00 0.00 0.00 0.00 0.00 0.00 0.00 0.00 0.00 0.00 0.00 0.00 0.00 0.00 0.00
0.00 0.00 0.00 0.00 0.00 0.00 0.00 0.00 0.00 0.00 0.00 0.00 0.00 0.00 0.00 0.00 0.00 0.00 0.00 0.00 0.00 0.00 0.00 0.00 0.00 0.00 0.00 0.00 0.00 0.00 0.00 0.00 0.00 0.00 0.00 0.00 0.00 0.00 0.00 0.00 0.00 0.00 0.00
0.00 0.00 0.00 0.00 0.00 0.00 0.00 0.00 0.00 0.00 0.00 0.00 0.00 0.00 0.00 0.00 0.00 0.00 0.00 0.00 0.00 0.00 0.00 0.00 0.00 0.00 0.00 0.00 0.00 0.00 0.00 0.00 0.00 0.00 0.00 0.00 0.00 0.00 0.00 0.00 0.00 0.00 0.00
0.00 0.00 0.00 0.00 0.00 0.00 0.00 0.00 0.00 0.00 0.00 0.00 0.00 0.00 0.00 0.00 0.00 0.00 0.00 0.00 0.00 0.00 0.00 0.00 0.00 0.00 0.00 0.00 0.00 0.00 0.00 0.00 0.00 0.00 0.00 0.00 0.00 0.00 0.00 0.00 0.00 0.00 0.00
0.00 0.00 0.00 0.00 0.00 0.00 0.00 0.00 0.00 0.00 0.00 0.00 0.00 0.00 0.00 0.00 0.00 0.00 0.00 0.00 0.00 0.00 0.00 0.00 0.00 0.00 0.00 0.00 0.00 0.00 0.00 0.00 0.00 0.00 0.00 0.00 0.00 0.00 0.00 0.00 0.00 0.00 0.00
0.00 0.00 0.00 0.00 0.00 0.00 0.00 0.00 0.00 0.00 0.00 0.00 0.00 0.00 0.00 0.00 0.00 0.00 0.00 0.00 0.00 0.00 0.00 0.00 0.00 0.00 0.00 0.00 0.00 0.00 0.00 0.00 0.00 0.00 0.00 0.00 0.00 0.00 0.00 0.00 0.00 0.00 0.00
0.00 0.00 0.00 0.00 0.00 0.00 0.00 0.00 0.00 0.00 0.00 0.00 0.00 0.00 0.00 0.00 0.00 0.00 0.00 0.00 0.00 0.00 0.00 0.00 0.00 0.00 0.00 0.00 0.00 0.00 0.00 0.00 0.00 0.00 0.00 0.00 0.00 0.00 0.00 0.00 0.00 0.00 0.00
0.00 0.00 0.00 0.00 0.00 0.00 0.00 0.00 0.00 0.00 0.00 0.00 0.00 0.00 0.00 0.00 0.00 0.00 0.00 0.00 0.00 0.00 0.00 0.00 0.00 0.00 0.00 0.00 0.00 0.00 0.00 0.00 0.00 0.00 0.00 0.00 0.00 0.00 0.00 0.00 0.00 0.00 0.00
0.00 0.00 0.00 0.00 0.00 0.00 0.00 0.00 0.00 0.00 0.00 0.00 0.00 0.00 0.00 0.00 0.00 0.00 0.00 0.00 0.00 0.00 0.00 0.00 0.00 0.00 0.00 0.00 0.00 0.00 0.00 0.00 0.00 0.00 0.00 0.00 0.00 0.00 0.00 0.00 0.00 0.00 0.00
0.00 0.00 0.00 0.00 0.00 0.00 0.00 0.00 0.00 0.00 0.00 0.00 0.00 0.00 0.00 0.00 0.00 0.00 0.00 0.00 0.00 0.00 0.00 0.00 0.00 0.00 0.00 0.00 0.00 0.00 0.00 0.00 0.00 0.00 0.00 0.00 0.00 0.00 0.00 0.00 0.00 0.00 0.00
0.00 0.00 0.00 0.00 0.00 0.00 0.00 0.00 0.00 0.00 0.00 0.00 0.00 0.00 0.00 0.00 0.00 0.00 0.00 0.00 0.00 0.00 0.00 0.00 0.00 0.00 0.00 0.00 0.00 0.00 0.00 0.00 0.00 0.00 0.00 0.00 0.00 0.00 0.00 0.00 0.00 0.00 0.00
0.00 0.00 0.00 0.00 0.00 0.00 0.00 0.00 0.00 0.00 0.00 0.00 0.00 0.00 0.00 0.00 0.00 0.00 0.00 0.00 0.00 0.00 0.00 0.00 0.00 0.00 0.00 0.00 0.00 0.00 0.00 0.00 0.00 0.00 0.00 0.00 0.00 0.00 0.00 0.00 0.00 0.00 0.00
0.00 0.00 0.00 0.00 0.00 0.00 0.00 0.00 0.00 0.00 0.00 0.00 0.00 0.00 0.00 0.00 0.00 0.00 0.00 0.00 0.00 0.00 0.00 0.00 0.00 0.00 0.00 0.00 0.00 0.00 0.00 0.00 0.00 0.00 0.00 0.00 0.00 0.00 0.00 0.00 0.00 0.00 0.00
0.01 0.01 0.00 0.00 0.00 0.00 0.00 0.00 0.00 0.00 0.00 0.00 0.00 0.00 0.00 0.00 0.00 0.00 0.00 0.00 0.00 0.00 0.00 0.00 0.00 0.00 0.00 0.00 0.00 0.00 0.00 0.00 0.00 0.00 0.00 0.00 0.00 0.00 0.00 0.00 0.00 0.00 0.00
0.01 0.01 0.00 0.00 0.00 0.00 0.00 0.00 0.00 0.00 0.00 0.00 0.00 0.00 0.00 0.00 0.00 0.00 0.00 0.00 0.00 0.00 0.00 0.00 0.00 0.00 0.00 0.00 0.00 0.00 0.00 0.00 0.00 0.00 0.00 0.00 0.00 0.00 0.00 0.00 0.00 0.00 0.00
0.00 0.00 0.00 0.00 0.00 0.00 0.00 0.00 0.00 0.00 0.00 0.00 0.00 0.00 0.00 0.00 0.00 0.00 0.00 0.00 0.00 0.00 0.00 0.00 0.00 0.00 0.00 0.00 0.00 0.00 0.00 0.00 0.00 0.00 0.00 0.00 0.00 0.00 0.00 0.00 0.00 0.00 0.00
0.00 0.00 0.00 0.00 0.00 0.00 0.00 0.00 0.00 0.00 0.00 0.00 0.00 0.00 0.00 0.00 0.00 0.00 0.00 0.00 0.00 0.00 0.00 0.00 0.00 0.00 0.00 0.00 0.00 0.00 0.00 0.00 0.00 0.00 0.00 0.00 0.00 0.00 0.00 0.00 0.00 0.00 0.00
MSLP
1005.40 1006.59 1007.61 1008.63 1009.70 1010.71 1011.36 1012.10 1013.05 1014.06 1014.76 1015.61 1016.37 1017.18 1017.87 1018.81 1019.29 1019.57 1019.94 1020.22 1020.59 1020.75 1020.75 1020.95 1020.91 1020.67 1020.51 1020.59 1020.47 1020.15 1019.93 1019.78 1019.80 1019.33 1019.25 1019.33 1019.48 1019.54 1019.58 1019.60 1019.68 1019.63 1019.61
1005.37 1006.08 1007.14 1008.05 1008.87 1009.82 1010.72 1011.61 1012.30 1013.42 1014.23 1015.05 1015.90 1016.62 1017.69 1018.69 1019.44 1020.02 1020.28 1020.58 1020.78 1020.82 1020.90 1020.84 1021.01 1021.15 1021.03 1021.09 1020.88 1020.55 1020.28 1020.28 1020.32 1019.78 1019.43 1019.04 1019.34 1019.32 1019.67 1019.78 1019.92 1020.18 1020.00
1004.74 1005.63 1006.38 1007.31 1008.30 1009.04 1009.85 1010.74 1011.75 1012.99 1013.91 1014.78 1015.87 1016.87 1017.90 1018.81 1019.43 1020.12 1020.51 1020.82 1021.00 1021.31 1021.49 1021.42 1021.44 1021.44 1021.39 1021.50 1021.41 1021.33 1020.91 1020.81 1020.90 1020.73 1020.31 1019.81 1019.64 1019.95 1019.70 1019.82 1020.08 1020.49 1020.28
1005.10 1005.63 1006.33 1007.16 1007.86 1008.65 1010.00 1010.95 1011.85 1012.82 1013.90 1014.62 1015.27 1015.97 1016.74 1017.90 1019.07 1019.88 1020.64 1021.08 1021.38 1021.46 1021.52 1021.59 1021.74 1022.04 1022.06 1021.93 1021.91 1021.93 1021.77 1021.58 1021.55 1021.54 1021.46 1021.42 1021.30 1020.80 1020.15 1020.07 1020.57 1020.89 1020.70
1005.98 1006.13 1006.58 1007.07 1007.86 1008.88 1009.67 1010.55 1011.74 1012.70 1013.49 1014.23 1014.99 1015.80 1016.82 1017.98 1019.25 1020.07 1020.75 1021.36 1021.62 1021.68 1021.93 1022.07 1022.26 1022.30 1022.27 1022.63 1022.53 1022.49 1022.62 1022.69 1022.64 1022.46 1022.34 1022.09 1021.72 1022.22 1021.88 1020.80 1020.65 1021.05 1021.05
1006.57 1006.44 1006.86 1007.53 1008.34 1009.37 1010.08 1010.77 1011.49 1012.38 1013.42 1014.16 1014.85 1015.46 1016.45 1017.70 1018.83 1019.70 1020.36 1021.14 1021.72 1021.78 1022.07 1022.17 1022.57 1022.84 1022.84 1023.04 1023.40 1023.58 1023.47 1023.20 1023.54 1023.46 1023.48 1023.09 1022.85 1022.92 1022.91 1022.53 1021.89 1021.41 1020.86
1008.32 1007.81 1007.91 1008.37 1008.93 1009.47 1010.06 1010.90 1011.52 1012.60 1013.39 1014.24 1014.93 1015.69 1016.33 1017.29 1018.44 1019.26 1020.03 1020.89 1021.68 1021.82 1022.31 1022.47 1022.63 1022.85 1023.19 1023.50 1024.10 1024.26 1024.23 1023.94 1023.72 1024.00 1024.24 1024.00 1023.96 1023.84 1023.61 1023.20 1022.98 1022.26 1021.09
1009.91 1009.53 1009.32 1009.32 1009.58 1010.01 1010.42 1010.91 1011.85 1012.69 1013.41 1014.33 1015.27 1016.30 1016.92 1017.62 1018.42 1019.36 1020.22 1020.77 1021.57 1021.82 1022.43 1022.87 1023.16 1023.23 1023.45 1023.82 1024.36 1024.76 1024.67 1024.44 1024.05 1024.27 1025.00 1024.64 1024.36 1024.03 1023.77 1023.48 1023.39 1022.48 1021.57
1010.40 1010.62 1010.54 1010.23 1010.19 1010.50 1010.98 1011.50 1012.43 1013.40 1014.24 1014.94 1015.71 1016.57 1017.31 1017.96 1018.64 1019.56 1020.46 1021.33 1021.85 1022.11 1022.81 1023.42 1023.74 1023.69 1023.90 1024.38 1024.67 1024.97 1025.01 1024.83 1024.75 1024.86 1025.13 1024.85 1024.81 1024.53 1024.13 1024.18 1024.01 1024.22 1022.72
1010.66 1010.73 1011.20 1011.36 1011.34 1011.46 1011.87 1012.39 1013.06 1013.98 1014.82 1015.69 1016.47 1017.33 1018.13 1018.70 1019.58 1020.27 1021.07 1021.99 1022.48 1022.70 1023.29 1023.88 1024.28 1024.30 1024.58 1024.78 1024.64 1024.83 1025.34 1025.34 1025.33 1025.18 1025.10 1025.13 1024.96 1024.72 1024.55 1024.72 1024.76 1024.40 1023.99
1010.78 1010.96 1011.32 1012.01 1012.15 1012.36 1012.99 1013.36 1014.06 1014.93 1015.71 1016.39 1017.20 1018.02 1018.85 1019.57 1020.09 1020.81 1021.67 1022.51 1022.68 1023.03 1023.96 1024.60 1024.82 1024.97 1024.92 1025.22 1025.07 1025.08 1025.35 1025.30 1025.38 1025.69 1025.55 1025.27 1025.16 1025.09 1025.23 1025.25 1025.01 1024.54 1024.11
1011.62 1011.42 1011.50 1011.91 1012.71 1013.37 1014.01 1014.62 1015.05 1015.79 1016.63 1017.27 1017.88 1018.84 1019.64 1020.29 1020.72 1021.28 1022.12 1022.63 1022.84 1023.58 1024.34 1024.87 1025.12 1025.47 1025.56 1025.96 1025.85 1025.59 1025.34 1025.22 1025.73 1025.77 1025.78 1025.73 1025.67 1025.47 1025.62 1025.28 1025.02 1024.75 1024.27
1011.51 1012.04 1012.10 1012.22 1012.87 1014.05 1014.50 1015.25 1016.04 1016.56 1017.30 1017.93 1018.51 1019.22 1020.29 1020.62 1021.42 1021.91 1022.46 1023.03 1023.36 1023.74 1024.40 1025.07 1025.33 1025.63 1025.92 1026.29 1026.11 1025.67 1025.70 1026.13 1026.16 1026.26 1026.04 1025.88 1025.99 1025.74 1025.72 1025.27 1025.00 1024.71 1024.25
1010.90 1011.20 1012.21 1012.22 1011.61 1012.82 1014.38 1015.57 1016.35 1016.69 1017.63 1018.30 1019.11 1019.61 1020.43 1021.36 1021.76 1022.32 1022.94 1023.24 1023.76 1024.21 1024.67 1025.24 1025.48 1025.89 1026.13 1026.17 1026.83 1026.93 1026.26 1026.75 1025.94 1026.56 1026.49 1025.90 1026.20 1026.29 1025.94 1025.41 1025.13 1024.78 1024.22
1009.90 1010.39 1011.48 1012.00 1012.58 1012.63 1013.74 1014.74 1015.96 1016.85 1017.52 1018.51 1019.28 1020.05 1020.55 1021.59 1022.33 1022.80 1023.18 1023.83 1024.15 1024.57 1024.79 1024.98 1025.80 1025.60 1025.76 1025.99 1027.15 1027.76 1026.48 1026.40 1026.42 1026.77 1026.56 1026.27 1026.85 1026.98 1026.63 1025.90 1025.47 1025.03 1024.40
1008.95 1009.54 1010.32 1011.04 1011.71 1012.47 1013.57 1014.25 1015.48 1016.25 1017.58 1018.17 1018.95 1020.00 1020.74 1021.74 1022.45 1022.97 1023.73 1024.45 1024.86 1025.01 1025.01 1025.51 1025.88 1025.73 1025.83 1027.01 1027.54 1027.25 1026.55 1026.75 1026.72 1026.91 1026.75 1026.27 1026.68 1026.68 1026.28 1026.07 1025.92 1025.69 1025.03
1008.04 1008.70 1009.12 1009.74 1010.82 1011.37 1012.52 1013.94 1015.25 1016.54 1017.39 1018.02 1019.26 1019.72 1020.59 1021.64 1022.35 1023.57 1024.39 1024.56 1024.88 1025.28 1025.78 1025.93 1025.74 1026.05 1026.68 1027.00 1027.41 1026.96 1026.66 1027.25 1027.25 1027.20 1026.70 1026.42 1026.68 1026.48 1025.97 1025.75 1025.51 1025.14 1025.13
1008.21 1008.44 1008.67 1009.05 1009.72 1010.90 1012.23 1013.53 1014.79 1016.12 1017.08 1017.99 1019.31 1020.34 1021.20 1021.81 1022.93 1023.57 1024.22 1024.65 1025.39 1025.84 1025.85 1025.75 1026.39 1026.90 1027.16 1027.33 1026.58 1026.90 1026.74 1027.60 1028.01 1027.59 1026.95 1026.68 1026.67 1026.44 1026.20 1025.84 1025.42 1024.90 1024.50
1008.69 1008.54 1008.65 1008.39 1009.17 1010.06 1011.44 1013.02 1014.45 1015.68 1016.89 1017.96 1019.15 1020.32 1021.29 1021.98 1023.04 1023.50 1024.18 1025.28 1025.75 1026.06 1025.78 1026.42 1027.20 1027.71 1027.06 1026.65 1026.84 1026.73 1027.17 1027.88 1028.29 1027.65 1027.39 1027.04 1026.72 1026.62 1026.21 1025.92 1025.59 1025.05 1024.56
1009.26 1008.94 1008.63 1008.54 1009.27 1010.41 1011.64 1012.63 1014.17 1015.50 1016.68 1017.91 1019.31 1020.33 1021.49 1022.28 1022.85 1023.09 1024.14 1025.16 1025.58 1025.87 1026.55 1027.34 1027.58 1027.71 1026.83 1026.51 1026.61 1027.50 1027.57 1028.66 1028.36 1027.60 1027.42 1027.53 1027.02 1026.55 1026.28 1026.05 1025.77 1025.22 1024.93
1009.87 1009.75 1009.62 1010.09 1010.72 1011.34 1012.07 1013.06 1014.20 1015.47 1016.64 1018.10 1019.44 1020.67 1021.79 1022.35 1022.86 1023.45 1024.42 1025.02 1025.82 1026.44 1026.72 1027.14 1027.53 1027.20 1027.24 1026.83 1026.72 1027.36 1028.19 1028.90 1028.13 1027.71 1027.44 1027.30 1027.00 1026.74 1026.62 1026.50 1025.96 1025.83 1025.73
1010.43 1010.57 1010.49 1010.98 1011.46 1012.16 1012.55 1013.69 1014.52 1015.67 1017.03 1018.35 1019.62 1020.81 1021.36 1022.36 1023.13 1023.75 1024.64 1025.19 1026.12 1026.76 1026.91 1027.05 1027.20 1027.47 1027.50 1027.14 1027.27 1027.49 1028.36 1029.02 1028.24 1027.97 1027.62 1027.31 1027.18 1026.99 1026.96 1026.57 1026.20 1026.06 1025.78
1010.59 1010.99 1010.98 1011.36 1011.90 1012.41 1012.97 1013.66 1014.80 1015.90 1017.18 1018.47 1019.56 1020.59 1021.26 1022.51 1023.33 1023.91 1024.83 1025.54 1025.92 1026.27 1026.63 1026.65 1027.18 1027.44 1027.35 1027.43 1027.50 1028.16 1028.47 1028.69 1028.39 1028.16 1027.91 1027.70 1027.48 1027.37 1027.11 1026.94 1026.46 1026.16 1025.61
1010.48 1010.87 1011.19 1011.53 1012.06 1012.70 1013.35 1014.09 1015.00 1016.09 1017.13 1018.22 1019.51 1020.36 1021.32 1022.47 1023.34 1024.14 1024.72 1025.12 1025.66 1026.17 1026.14 1026.69 1027.22 1027.18 1027.06 1027.31 1027.60 1028.38 1028.23 1028.41 1028.09 1028.17 1027.94 1028.35 1027.77 1027.75 1027.49 1026.67 1026.20 1025.91 1025.71
1010.10 1010.83 1011.00 1011.52 1012.01 1012.80 1013.70 1014.55 1015.19 1016.14 1017.13 1018.32 1019.29 1020.37 1021.35 1022.32 1022.99 1023.79 1024.57 1025.10 1025.73 1025.73 1026.28 1026.78 1026.85 1026.63 1026.96 1027.23 1027.41 1027.58 1027.79 1027.79 1028.21 1028.16 1027.82 1027.60 1027.26 1026.98 1026.60 1026.32 1026.21 1025.83 1025.45
1009.62 1010.62 1010.91 1011.49 1012.13 1012.90 1013.80 1014.54 1015.29 1016.20 1017.23 1018.22 1019.19 1020.10 1020.90 1021.81 1022.52 1023.56 1024.60 1025.31 1025.75 1026.30 1026.66 1026.73 1026.61 1027.03 1027.41 1027.13 1027.31 1027.50 1027.92 1027.92 1028.23 1027.91 1027.69 1027.42 1027.22 1026.81 1026.66 1026.50 1026.03 1025.57 1025.25
Thickness
5696 5689 5680 5671 5663 5655 5650 5643 5634 5626 5620 5612 5604 5595 5591 5584 5580 5577 5574 5571 5567 5566 5566 5564 5564 5567 5568 5566 5567 5570 5571 5571 5571 5575 5575 5573 5571 5569 5568 5566 5565 5565 5565
5683 5681 5671 5664 5660 5653 5646 5638 5633 5622 5615 5608 5600 5593 5583 5574 5568 5563 5562 5559 5557 5557 5556 5557 5555 5554 5555 5554 5556 5558 5559 5559 5557 5562 5564 5570 5565 5561 5556 5553 5551 5548 5549
5678 5671 5667 5659 5651 5648 5643 5636 5627 5616 5609 5600 5591 5582 5573 5564 5559 5553 5550 5549 5548 5545 5542 5543 5542 5543 5542 5542 5542 5543 5546 5545 5542 5542 5547 5557 5556 5544 5544 5542 5537 5532 5532
5663 5660 5653 5649 5644 5639 5629 5622 5615 5606 5597 5592 5587 5581 5575 5563 5552 5544 5538 5535 5536 5535 5533 5532 5530 5527 5526 5528 5528 5527 5528 5527 5526 5524 5523 5523 5522 5528 5536 5528 5520 5514 5515
5643 5644 5640 5637 5631 5624 5620 5614 5604 5597 5591 5585 5579 5571 5562 5551 5540 5533 5526 5521 5521 5521 5519 5517 5515 5515 5515 5511 5511 5510 5507 5505 5504 5504 5503 5505 5508 5501 5504 5514 5509 5498 5497
5628 5631 5627 5622 5615 5605 5601 5597 5593 5587 5580 5574 5568 5562 5553 5542 5533 5525 5520 5516 5511 5511 5508 5507 5503 5500 5499 5497 5493 5489 5488 5489 5484 5483 5481 5484 5485 5482 5480 5482 5485 5482 5482
5598 5604 5604 5600 5596 5592 5588 5583 5580 5571 5566 5560 5555 5548 5543 5535 5525 5519 5513 5508 5502 5500 5495 5493 5491 5488 5485 5482 5475 5472 5470 5471 5472 5468 5464 5463 5461 5460 5458 5461 5461 5464 5468
5569 5574 5577 5579 5577 5574 5571 5570 5563 5556 5552 5547 5540 5531 5526 5521 5514 5509 5503 5498 5491 5488 5482 5477 5474 5473 5470 5466 5461 5456 5455 5456 5457 5453 5443 5443 5443 5443 5443 5444 5442 5447 5451
5546 5548 5550 5555 5558 5558 5554 5550 5542 5535 5529 5525 5520 5513 5508 5504 5502 5494 5488 5481 5475 5472 5465 5460 5458 5458 5457 5450 5448 5444 5442 5442 5440 5436 5431 5430 5426 5425 5426 5421 5418 5411 5423
5527 5528 5525 5526 5529 5532 5529 5526 5521 5514 5508 5502 5497 5492 5488 5485 5479 5474 5469 5462 5456 5453 5447 5442 5440 5442 5440 5438 5439 5436 5429 5426 5423 5423 5420 5415 5412 5409 5406 5400 5396 5395 5395
5510 5509 5508 5503 5504 5505 5503 5502 5498 5492 5488 5484 5479 5474 5470 5465 5462 5457 5450 5443 5443 5437 5431 5425 5424 5426 5428 5425 5425 5422 5417 5415 5411 5404 5401 5398 5395 5392 5386 5381 5379 5380 5380
5488 5489 5492 5492 5486 5481 5478 5475 5474 5471 5467 5464 5461 5456 5451 5447 5444 5440 5434 5431 5428 5423 5416 5413 5413 5411 5412 5408 5406 5405 5404 5402 5393 5390 5386 5383 5378 5375 5369 5369 5368 5366 5366
5477 5472 5474 5473 5469 5464 5461 5458 5454 5452 5448 5446 5444 5439 5434 5433 5427 5423 5419 5416 5414 5412 5408 5402 5401 5399 5396 5390 5390 5391 5388 5380 5378 5374 5372 5368 5361 5360 5357 5358 5357 5355 5354
5475 5474 5464 5459 5470 5462 5451 5445 5440 5437 5433 5432 5428 5424 5421 5415 5412 5410 5406 5404 5401 5399 5396 5390 5389 5385 5382 5382 5373 5368 5371 5365 5369 5360 5355 5355 5349 5345 5345 5346 5345 5343 5342
5475 5471 5465 5458 5453 5459 5449 5443 5435 5428 5425 5419 5414 5410 5410 5403 5397 5396 5393 5389 5388 5385 5384 5383 5375 5378 5374 5371 5357 5349 5357 5356 5354 5345 5342 5341 5334 5329 5329 5331 5330 5329 5328
5475 5468 5464 5462 5454 5448 5444 5439 5432 5428 5418 5414 5410 5403 5399 5393 5387 5384 5380 5376 5373 5373 5373 5369 5365 5365 5362 5351 5344 5343 5347 5342 5339 5333 5331 5330 5324 5320 5319 5317 5314 5310 5309
5478 5473 5467 5462 5453 5451 5441 5432 5424 5417 5413 5410 5399 5397 5391 5384 5381 5372 5366 5366 5365 5362 5358 5356 5357 5352 5343 5339 5333 5338 5334 5326 5322 5319 5320 5319 5314 5312 5311 5307 5303 5299 5292
5461 5462 5463 5461 5453 5445 5435 5426 5417 5408 5404 5399 5388 5380 5376 5374 5366 5363 5359 5357 5352 5348 5348 5350 5341 5332 5327 5328 5335 5328 5323 5312 5305 5306 5308 5307 5304 5301 5299 5296 5292 5287 5281
5441 5445 5447 5456 5450 5443 5433 5420 5412 5403 5396 5389 5381 5372 5366 5362 5355 5354 5350 5343 5338 5336 5340 5331 5322 5316 5321 5324 5321 5316 5308 5299 5293 5297 5296 5295 5293 5289 5287 5284 5278 5273 5266
5425 5431 5436 5441 5438 5429 5421 5415 5405 5396 5389 5381 5370 5364 5356 5351 5350 5350 5343 5335 5332 5329 5321 5313 5310 5307 5314 5313 5309 5299 5295 5282 5283 5288 5285 5281 5279 5277 5273 5269 5263 5259 5251
5409 5413 5417 5416 5412 5410 5407 5401 5395 5387 5380 5369 5360 5352 5344 5343 5342 5338 5331 5327 5319 5313 5310 5305 5302 5303 5299 5298 5296 5289 5279 5270 5276 5276 5274 5270 5267 5262 5256 5250 5246 5239 5232
5392 5394 5398 5396 5395 5392 5392 5385 5382 5375 5366 5358 5350 5342 5340 5336 5331 5326 5319 5314 5306 5300 5298 5297 5295 5289 5286 5286 5282 5278 5268 5261 5265 5264 5262 5258 5252 5246 5239 5234 5229 5223 5217
5382 5379 5384 5381 5381 5381 5380 5377 5370 5363 5355 5347 5340 5335 5333 5325 5320 5314 5306 5300 5298 5296 5292 5292 5285 5279 5277 5274 5272 5263 5258 5255 5255 5252 5248 5243 5237 5230 5223 5217 5212 5206 5201
5376 5375 5374 5374 5372 5371 5369 5366 5359 5353 5347 5341 5332 5328 5323 5315 5308 5302 5298 5295 5291 5287 5287 5280 5273 5271 5270 5265 5260 5251 5249 5247 5245 5240 5235 5227 5221 5214 5207 5203 5197 5190 5182
5374 5368 5370 5368 5366 5362 5357 5351 5350 5345 5340 5332 5327 5319 5311 5304 5300 5296 5291 5287 5282 5282 5275 5269 5267 5268 5262 5256 5250 5247 5243 5239 5232 5228 5223 5218 5211 5205 5198 5191 5183 5176 5168
5372 5363 5364 5361 5357 5354 5348 5345 5342 5336 5329 5323 5317 5311 5306 5300 5296 5289 5281 5277 5273 5265 5261 5260 5260 5254 5248 5246 5242 5238 5232 5228 5222 5218 5212 5207 5200 5194 5186 5178 5170 5163 5155